| time (UTC) | temp C | wind direction | speed KPH | gust KPH | rain 1hr cm | rain 24hr cm | rain mn cm | humidity % | barometer mb |
| 20260504032358 | 21 | 76 | 4.8 | 11.3 | 0.00 | 0.18 | 0.15 | 80 | 1017.4 |
| 20260504031858 | 21 | 74 | 4.8 | 9.7 | 0.00 | 0.18 | 0.15 | 80 | 1017.4 |
| 20260504030259 | 21 | 76 | 4.8 | 11.3 | 0.00 | 0.20 | 0.15 | 80 | 1017.6 |
| 20260504025158 | 21 | 74 | 4.8 | 9.7 | 0.00 | 0.20 | 0.15 | 80 | 1017.4 |
| 20260504024658 | 21 | 76 | 4.8 | 9.7 | 0.00 | 0.20 | 0.15 | 81 | 1017.4 |
| 20260504023029 | 21 | 80 | 4.8 | 11.3 | 0.00 | 0.20 | 0.15 | 81 | 1017.3 |
| 20260504020929 | 21 | 83 | 6.4 | 12.9 | 0.00 | 0.20 | 0.15 | 81 | 1017.1 |
| 20260504020429 | 21 | 81 | 6.4 | 12.9 | 0.00 | 0.20 | 0.15 | 81 | 1017.0 |
| 20260504015858 | 21 | 80 | 6.4 | 16.1 | 0.00 | 0.20 | 0.15 | 80 | 1017.0 |
| 20260504015359 | 21 | 83 | 6.4 | 16.1 | 0.00 | 0.20 | 0.15 | 80 | 1016.9 |
| 20260504014858 | 21 | 85 | 8.0 | 14.5 | 0.00 | 0.20 | 0.15 | 80 | 1016.9 |
| 20260504012258 | 21 | 81 | 8.0 | 17.7 | 0.00 | 0.20 | 0.15 | 80 | 1016.7 |
| 20260504011158 | 22 | 78 | 6.4 | 17.7 | 0.00 | 0.20 | 0.15 | 79 | 1016.8 |
| 20260504010659 | 22 | 77 | 6.4 | 17.7 | 0.00 | 0.20 | 0.15 | 79 | 1016.8 |
| 20260504010129 | 22 | 77 | 6.4 | 16.1 | 0.00 | 0.20 | 0.15 | 79 | 1016.7 |
| 20260504005558 | 22 | 78 | 8.0 | 17.7 | 0.00 | 0.20 | 0.15 | 79 | 1016.6 |
| 20260504005059 | 22 | 76 | 6.4 | 16.1 | 0.00 | 0.20 | 0.15 | 78 | 1016.3 |
| 20260504004528 | 22 | 79 | 6.4 | 17.7 | 0.00 | 0.20 | 0.15 | 79 | 1016.3 |
| 20260504003458 | 22 | 78 | 4.8 | 16.1 | 0.00 | 0.20 | 0.15 | 78 | 1016.1 |
| 20260504002458 | 22 | 79 | 8.0 | 17.7 | 0.00 | 0.20 | 0.15 | 78 | 1016.1 |
| 20260504001928 | 22 | 79 | 9.7 | 19.3 | 0.00 | 0.20 | 0.15 | 77 | 1016.1 |
| 20260504001428 | 22 | 80 | 8.0 | 19.3 | 0.00 | 0.20 | 0.15 | 77 | 1016.1 |
| 20260504000928 | 22 | 84 | 8.0 | 19.3 | 0.00 | 0.20 | 0.15 | 77 | 1016.2 |
| 20260504000358 | 22 | 80 | 11.3 | 20.9 | 0.00 | 0.20 | 0.15 | 77 | 1016.0 |
| 20260503235858 | 22 | 80 | 12.9 | 22.5 | 0.00 | 0.20 | 0.15 | 77 | 1015.9 |
| 20260503233328 | 23 | 84 | 11.3 | 24.1 | 0.00 | 0.20 | 0.15 | 75 | 1015.9 |
| 20260503232829 | 23 | 78 | 12.9 | 22.5 | 0.00 | 0.20 | 0.15 | 75 | 1015.9 |
| 20260503231828 | 23 | 77 | 9.7 | 22.5 | 0.00 | 0.20 | 0.15 | 76 | 1015.8 |
| 20260503230828 | 23 | 84 | 12.9 | 27.4 | 0.00 | 0.20 | 0.15 | 76 | 1015.7 |
| 20260503230328 | 23 | 86 | 12.9 | 27.4 | 0.00 | 0.20 | 0.15 | 75 | 1015.8 |
| 20260503225758 | 23 | 76 | 11.3 | 24.1 | 0.00 | 0.23 | 0.15 | 77 | 1015.7 |
| 20260503224159 | 23 | 86 | 11.3 | 24.1 | 0.00 | 0.25 | 0.15 | 74 | 1015.8 |
| 20260503223628 | 23 | 83 | 9.7 | 20.9 | 0.00 | 0.28 | 0.15 | 74 | 1015.7 |
| 20260503223128 | 23 | 84 | 9.7 | 20.9 | 0.00 | 0.28 | 0.15 | 75 | 1015.8 |
| 20260503222558 | 23 | 86 | 11.3 | 22.5 | 0.00 | 0.28 | 0.15 | 74 | 1015.7 |
| 20260503222058 | 23 | 85 | 9.7 | 22.5 | 0.00 | 0.28 | 0.15 | 74 | 1015.6 |
| 20260503221559 | 24 | 85 | 12.9 | 24.1 | 0.00 | 0.28 | 0.15 | 73 | 1015.6 |
| 20260503221028 | 24 | 94 | 14.5 | 24.1 | 0.00 | 0.28 | 0.15 | 73 | 1015.7 |
| 20260503220528 | 24 | 97 | 14.5 | 24.1 | 0.00 | 0.28 | 0.15 | 73 | 1015.6 |
| 20260503220029 | 24 | 96 | 14.5 | 22.5 | 0.00 | 0.28 | 0.15 | 74 | 1015.6 |
| 20260503215458 | 24 | 89 | 11.3 | 22.5 | 0.00 | 0.28 | 0.15 | 74 | 1015.6 |
| 20260503214428 | 24 | 82 | 11.3 | 20.9 | 0.00 | 0.28 | 0.15 | 73 | 1015.5 |
| 20260503213928 | 24 | 83 | 9.7 | 22.5 | 0.00 | 0.28 | 0.15 | 73 | 1015.4 |
| 20260503213428 | 24 | 84 | 9.7 | 22.5 | 0.00 | 0.28 | 0.15 | 72 | 1015.5 |
| 20260503212858 | 24 | 83 | 9.7 | 20.9 | 0.00 | 0.28 | 0.15 | 72 | 1015.5 |
| 20260503211759 | 25 | 93 | 8.0 | 17.7 | 0.00 | 0.28 | 0.15 | 73 | 1015.4 |
| 20260503211258 | 24 | 89 | 8.0 | 22.5 | 0.00 | 0.28 | 0.15 | 71 | 1015.5 |
| 20260503210758 | 24 | 92 | 12.9 | 22.5 | 0.00 | 0.30 | 0.15 | 71 | 1015.5 |
| 20260503210228 | 24 | 91 | 12.9 | 22.5 | 0.00 | 0.30 | 0.15 | 70 | 1015.6 |
| 20260503204659 | 25 | 88 | 11.3 | 19.3 | 0.00 | 0.33 | 0.15 | 68 | 1015.7 |
| 20260503204158 | 25 | 95 | 16.1 | 22.5 | 0.00 | 0.33 | 0.15 | 70 | 1015.7 |
| 20260503203658 | 25 | 96 | 12.9 | 22.5 | 0.00 | 0.33 | 0.15 | 70 | 1015.7 |
| 20260503203158 | 25 | 88 | 6.4 | 22.5 | 0.00 | 0.33 | 0.15 | 71 | 1015.7 |
| 20260503202628 | 25 | 80 | 4.8 | 17.7 | 0.00 | 0.33 | 0.15 | 69 | 1015.7 |
| 20260503202128 | 24 | 82 | 9.7 | 20.9 | 0.00 | 0.33 | 0.15 | 69 | 1015.9 |
| 20260503201628 | 25 | 90 | 11.3 | 24.1 | 0.00 | 0.33 | 0.15 | 70 | 1016.0 |
| 20260503201128 | 25 | 85 | 8.0 | 24.1 | 0.00 | 0.33 | 0.15 | 68 | 1016.0 |
| 20260503200558 | 25 | 65 | 4.8 | 11.3 | 0.00 | 0.33 | 0.15 | 71 | 1016.0 |
| 20260503200058 | 25 | 73 | 4.8 | 17.7 | 0.00 | 0.36 | 0.15 | 69 | 1016.1 |
| 20260503195558 | 25 | 82 | 4.8 | 17.7 | 0.00 | 0.36 | 0.15 | 68 | 1016.2 |
| 20260503195028 | 25 | 84 | 4.8 | 17.7 | 0.00 | 0.36 | 0.15 | 71 | 1016.3 |
| 20260503194528 | 24 | 80 | 4.8 | 19.3 | 0.00 | 0.36 | 0.15 | 70 | 1016.4 |
| 20260503193958 | 24 | 79 | 6.4 | 19.3 | 0.00 | 0.36 | 0.15 | 71 | 1016.5 |
| 20260503192929 | 24 | 53 | 3.2 | 9.7 | 0.00 | 0.36 | 0.15 | 70 | 1016.7 |
| 20260503192429 | 24 | 76 | 4.8 | 17.7 | 0.00 | 0.36 | 0.15 | 72 | 1016.9 |
| 20260503191928 | 24 | 76 | 6.4 | 17.7 | 0.00 | 0.36 | 0.15 | 71 | 1016.8 |
| 20260503191429 | 24 | 75 | 6.4 | 16.1 | 0.00 | 0.36 | 0.15 | 70 | 1016.8 |
| 20260503190858 | 24 | 75 | 4.8 | 16.1 | 0.00 | 0.36 | 0.15 | 72 | 1017.0 |
| 20260503190358 | 24 | 53 | 3.2 | 9.7 | 0.00 | 0.36 | 0.15 | 72 | 1017.0 |
| 20260503185358 | 24 | 89 | 9.7 | 19.3 | 0.00 | 0.36 | 0.15 | 73 | 1017.2 |
| 20260503184828 | 24 | 88 | 8.0 | 19.3 | 0.00 | 0.36 | 0.15 | 73 | 1017.3 |
| 20260503184328 | 24 | 89 | 8.0 | 19.3 | 0.00 | 0.36 | 0.15 | 73 | 1017.3 |
| 20260503183228 | 24 | 88 | 8.0 | 22.5 | 0.00 | 0.36 | 0.15 | 73 | 1017.5 |
| 20260503182658 | 24 | 89 | 6.4 | 17.7 | 0.00 | 0.36 | 0.15 | 73 | 1017.5 |
| 20260503182158 | 23 | 83 | 8.0 | 22.5 | 0.00 | 0.36 | 0.15 | 74 | 1017.6 |
| 20260503181128 | 23 | 93 | 12.9 | 27.4 | 0.00 | 0.36 | 0.15 | 74 | 1017.6 |
| 20260503175558 | 23 | 84 | 8.0 | 20.9 | 0.00 | 0.36 | 0.15 | 74 | 1018.0 |
| 20260503174458 | 23 | 76 | 6.4 | 14.5 | 0.00 | 0.36 | 0.15 | 74 | 1018.0 |
| 20260503173958 | 23 | 57 | 4.8 | 14.5 | 0.00 | 0.36 | 0.15 | 77 | 1018.1 |
| 20260503172858 | 23 | 76 | 8.0 | 22.5 | 0.00 | 0.36 | 0.15 | 76 | 1018.0 |
| 20260503172358 | 23 | 77 | 8.0 | 22.5 | 0.00 | 0.36 | 0.15 | 78 | 1018.0 |
| 20260503171258 | 23 | 83 | 9.7 | 29.0 | 0.00 | 0.36 | 0.15 | 76 | 1018.0 |
| 20260503170758 | 23 | 81 | 8.0 | 24.1 | 0.00 | 0.36 | 0.15 | 76 | 1018.2 |
| 20260503170228 | 23 | 70 | 6.4 | 24.1 | 0.00 | 0.36 | 0.15 | 76 | 1018.2 |
| 20260503150529 | 20 | 32 | 3.2 | 6.4 | 0.00 | 0.36 | 0.15 | 88 | 1018.8 |
| 20260503130428 | 18 | 21 | 4.8 | 9.7 | 0.00 | 0.36 | 0.15 | 93 | 1017.3 |
| 20260503110428 | 17 | 19 | 3.2 | 8.0 | 0.00 | 0.36 | 0.15 | 98 | 1016.0 |
| 20260503081558 | 18 | 34 | 3.2 | 6.4 | 0.03 | 0.30 | 0.10 | 99 | 1014.8 |
| 20260503081029 | 18 | 17 | 3.2 | 8.0 | 0.03 | 0.30 | 0.10 | 99 | 1015.0 |
| 20260503080528 | 18 | 14 | 3.2 | 8.0 | 0.03 | 0.30 | 0.10 | 99 | 1015.0 |
| 20260503072829 | 18 | 11 | 4.8 | 8.0 | 0.00 | 0.28 | 0.08 | 98 | 1014.7 |
| 20260503072328 | 18 | 10 | 3.2 | 6.4 | 0.00 | 0.28 | 0.08 | 98 | 1014.9 |
| 20260503071758 | 18 | 13 | 3.2 | 6.4 | 0.00 | 0.28 | 0.08 | 98 | 1014.9 |
| 20260503071258 | 18 | 20 | 3.2 | 6.4 | 0.03 | 0.28 | 0.08 | 98 | 1014.9 |
| 20260503070728 | 18 | 25 | 3.2 | 6.4 | 0.03 | 0.28 | 0.08 | 98 | 1014.9 |
| 20260503070158 | 18 | 31 | 3.2 | 6.4 | 0.05 | 0.28 | 0.08 | 98 | 1014.9 |
| 20260503054828 | 20 | 359 | 4.8 | 11.3 | 0.03 | 0.23 | 0.03 | 97 | 1014.6 |
| 20260503054328 | 20 | 4 | 3.2 | 11.3 | 0.03 | 0.23 | 0.03 | 98 | 1014.7 |
| 20260503053828 | 21 | 16 | 0.0 | 6.4 | 0.03 | 0.23 | 0.03 | 99 | 1014.8 |
| 20260503053328 | 21 | 222 | 0.0 | 4.8 | 0.03 | 0.23 | 0.03 | 99 | 1014.8 |
| 20260503052828 | 21 | 231 | 1.6 | 4.8 | 0.03 | 0.23 | 0.03 | 99 | 1014.8 |
| 20260503051758 | 21 | 236 | 1.6 | 4.8 | 0.03 | 0.23 | 0.03 | 99 | 1014.8 |
| 20260503051258 | 21 | 231 | 1.6 | 4.8 | 0.03 | 0.23 | 0.03 | 99 | 1014.7 |
| 20260503050728 | 21 | 194 | 1.6 | 6.4 | 0.03 | 0.23 | 0.03 | 99 | 1014.8 |
| 20260503050158 | 21 | 219 | 3.2 | 8.0 | 0.03 | 0.23 | 0.03 | 99 | 1014.7 |
| 20260503045658 | 21 | 241 | 3.2 | 8.0 | 0.00 | 0.20 | 0.00 | 99 | 1015.0 |
| 20260503045128 | 21 | 247 | 3.2 | 9.7 | 0.00 | 0.20 | 0.00 | 99 | 1015.0 |
| 20260503044628 | 21 | 242 | 4.8 | 9.7 | 0.03 | 0.20 | 0.00 | 99 | 1015.0 |
| 20260503044101 | 21 | 238 | 4.8 | 8.0 | 0.03 | 0.20 | 0.00 | 99 | 1014.9 |
| 20260503043528 | 21 | 240 | 4.8 | 11.3 | 0.03 | 0.20 | 0.00 | 99 | 1014.9 |
| 20260503041928 | 21 | 236 | 4.8 | 11.3 | 0.03 | 0.20 | 0.00 | 99 | 1014.7 |
| 20260503041428 | 21 | 241 | 4.8 | 11.3 | 0.05 | 0.20 | 0.00 | 99 | 1014.7 |
| 20260503040428 | 21 | 241 | 4.8 | 8.0 | 0.05 | 0.20 | 0.00 | 99 | 1014.4 |
| 20260503035928 | 21 | 238 | 3.2 | 9.7 | 0.05 | 0.20 | 0.20 | 99 | 1014.1 |
| 20260503035428 | 21 | 236 | 3.2 | 9.7 | 0.05 | 0.20 | 0.20 | 98 | 1013.9 |
| 20260503034928 | 21 | 235 | 3.2 | 6.4 | 0.05 | 0.20 | 0.20 | 98 | 1013.8 |
| 20260503034358 | 21 | 258 | 1.6 | 4.8 | 0.03 | 0.18 | 0.18 | 98 | 1013.8 |
| 20260503033828 | 21 | 290 | 1.6 | 3.2 | 0.03 | 0.18 | 0.18 | 98 | 1013.7 |
| 20260503033328 | 21 | 269 | 1.6 | 3.2 | 0.03 | 0.18 | 0.18 | 98 | 1013.7 |